| time (UTC) | temp F | wind direction | speed MPH | gust MPH | rain 1hr in | rain 24hr in | rain mn in | humidity % | barometer mb |
| 20260507214505 | 65 | 84 | 2.0 | 0.0 | 0.00 | 0.00 | 0.14 | 53 | 1007.4 |
| 20260507213101 | 66 | 181 | 1.0 | 0.0 | 0.00 | 0.00 | 0.14 | 51 | 1007.5 |
| 20260507211601 | 66 | 17 | 3.0 | 0.0 | 0.00 | 0.00 | 0.14 | 51 | 1007.4 |
| 20260507210106 | 68 | 46 | 4.0 | 0.0 | 0.00 | 0.00 | 0.14 | 42 | 1007.5 |
| 20260507204547 | 68 | 335 | 5.0 | 0.0 | 0.00 | 0.00 | 0.14 | 43 | 1007.3 |
| 20260507203109 | 66 | 355 | 4.0 | 0.0 | 0.00 | 0.00 | 0.14 | 43 | 1007.4 |
| 20260507201539 | 66 | 96 | 2.0 | 0.0 | 0.00 | 0.00 | 0.14 | 48 | 1007.2 |
| 20260507200035 | 65 | 194 | 2.0 | 0.0 | 0.00 | 0.00 | 0.14 | 49 | 1007.1 |
| 20260507194531 | 64 | 202 | 1.0 | 0.0 | 0.00 | 0.00 | 0.14 | 50 | 1007.7 |
| 20260507193026 | 64 | 183 | 4.0 | 0.0 | 0.00 | 0.00 | 0.14 | 50 | 1007.9 |
| 20260507191521 | 64 | 76 | 2.0 | 0.0 | 0.00 | 0.00 | 0.14 | 52 | 1008.4 |
| 20260507190016 | 63 | 121 | 2.0 | 0.0 | 0.00 | 0.00 | 0.14 | 51 | 1008.1 |
| 20260507184515 | 62 | 145 | 2.0 | 0.0 | 0.00 | 0.00 | 0.14 | 52 | 1008.5 |
| 20260507183012 | 62 | 188 | 2.0 | 0.0 | 0.00 | 0.00 | 0.14 | 53 | 1008.8 |
| 20260507181507 | 61 | 155 | 2.0 | 0.0 | 0.00 | 0.00 | 0.14 | 53 | 1008.9 |
| 20260507180100 | 60 | 346 | 2.0 | 0.0 | 0.00 | 0.00 | 0.14 | 54 | 1008.9 |
| 20260507174601 | 60 | 162 | 2.0 | 0.0 | 0.00 | 0.00 | 0.14 | 54 | 1009.4 |
| 20260507173124 | 60 | 81 | 3.0 | 0.0 | 0.00 | 0.00 | 0.14 | 56 | 1009.7 |
| 20260507171546 | 59 | 5 | 2.0 | 0.0 | 0.00 | 0.00 | 0.14 | 54 | 1010.0 |
| 20260507170041 | 58 | 282 | 2.0 | 0.0 | 0.00 | 0.00 | 0.14 | 56 | 1010.0 |
| 20260507164537 | 57 | 23 | 2.0 | 0.0 | 0.00 | 0.00 | 0.14 | 56 | 1010.2 |
| 20260507163035 | 57 | 40 | 2.0 | 0.0 | 0.00 | 0.00 | 0.14 | 58 | 1010.8 |
| 20260507161539 | 56 | 284 | 2.0 | 0.0 | 0.00 | 0.00 | 0.14 | 59 | 1010.9 |
| 20260507160024 | 56 | 355 | 3.0 | 0.0 | 0.00 | 0.00 | 0.14 | 60 | 1011.2 |
| 20260507154519 | 55 | 10 | 3.0 | 0.0 | 0.00 | 0.00 | 0.14 | 61 | 1011.3 |
| 20260507153015 | 55 | 343 | 1.0 | 0.0 | 0.00 | 0.00 | 0.14 | 59 | 1011.3 |
| 20260507151511 | 54 | 306 | 3.0 | 0.0 | 0.00 | 0.00 | 0.14 | 53 | 1011.4 |
| 20260507150008 | 53 | 33 | 3.0 | 0.0 | 0.00 | 0.00 | 0.14 | 41 | 1011.5 |
| 20260507144502 | 53 | 32 | 3.0 | 0.0 | 0.00 | 0.00 | 0.14 | 24 | 1011.7 |
| 20260507143103 | 53 | 17 | 2.0 | 0.0 | 0.00 | 0.00 | 0.14 | 100 | 1011.8 |
| 20260507141600 | 52 | 27 | 2.0 | 0.0 | 0.00 | 0.00 | 0.14 | 100 | 1011.9 |
| 20260507140050 | 52 | 325 | 2.0 | 0.0 | 0.00 | 0.00 | 0.14 | 100 | 1012.2 |
| 20260507134549 | 51 | 342 | 3.0 | 0.0 | 0.00 | 0.00 | 0.14 | 100 | 1012.1 |
| 20260507133108 | 51 | 329 | 3.0 | 0.0 | 0.00 | 0.00 | 0.14 | 100 | 1012.2 |
| 20260507131543 | 51 | 317 | 2.0 | 0.0 | 0.00 | 0.00 | 0.14 | 100 | 1012.2 |
| 20260507130036 | 51 | 340 | 3.0 | 0.0 | 0.00 | 0.00 | 0.14 | 100 | 1012.2 |
| 20260507124528 | 52 | 328 | 3.0 | 0.0 | 0.00 | 0.00 | 0.14 | 100 | 1012.0 |
| 20260507123034 | 53 | 355 | 2.0 | 0.0 | 0.00 | 0.00 | 0.14 | 100 | 1011.9 |
| 20260507121519 | 53 | 290 | 2.0 | 0.0 | 0.00 | 0.00 | 0.14 | 100 | 1011.9 |
| 20260507120014 | 54 | 9 | 2.0 | 0.0 | 0.00 | 0.00 | 0.14 | 100 | 1011.7 |
| 20260507114510 | 54 | 360 | 2.0 | 0.0 | 0.00 | 0.00 | 0.14 | 100 | 1011.7 |
| 20260507113010 | 54 | 342 | 0.0 | 0.0 | 0.00 | 0.00 | 0.14 | 100 | 1011.4 |
| 20260507111500 | 54 | 327 | 0.0 | 0.0 | 0.00 | 0.00 | 0.14 | 100 | 1011.7 |
| 20260507110100 | 54 | 333 | 0.0 | 0.0 | 0.00 | 0.00 | 0.14 | 100 | 1011.4 |
| 20260507104553 | 54 | 333 | 0.0 | 0.0 | 0.00 | 0.00 | 0.14 | 100 | 1011.4 |
| 20260507103054 | 54 | 333 | 0.0 | 0.0 | 0.00 | 0.00 | 0.14 | 100 | 1011.3 |
| 20260507101547 | 54 | 333 | 0.0 | 0.0 | 0.00 | 0.00 | 0.14 | 100 | 1011.0 |
| 20260507100039 | 54 | 333 | 0.0 | 0.0 | 0.00 | 0.00 | 0.13 | 100 | 1010.9 |
| 20260507094542 | 54 | 334 | 0.0 | 0.0 | 0.00 | 0.00 | 0.13 | 100 | 1010.9 |
| 20260507093030 | 54 | 334 | 0.0 | 0.0 | 0.00 | 0.00 | 0.13 | 100 | 1010.7 |
| 20260507091532 | 54 | 335 | 0.0 | 0.0 | 0.00 | 0.00 | 0.13 | 100 | 1010.9 |
| 20260507090021 | 54 | 334 | 0.0 | 0.0 | 0.00 | 0.00 | 0.13 | 100 | 1010.9 |
| 20260507084520 | 54 | 334 | 0.0 | 0.0 | 0.00 | 0.00 | 0.13 | 100 | 1010.4 |
| 20260507083013 | 54 | 334 | 1.0 | 0.0 | 0.00 | 0.00 | 0.13 | 100 | 1010.3 |
| 20260507081509 | 54 | 355 | 1.0 | 0.0 | 0.00 | 0.00 | 0.13 | 100 | 1010.0 |
| 20260507080005 | 54 | 342 | 3.0 | 0.0 | 0.00 | 0.00 | 0.13 | 100 | 1009.9 |
| 20260507074604 | 55 | 355 | 3.0 | 0.0 | 0.00 | 0.00 | 0.13 | 100 | 1009.9 |
| 20260507073107 | 55 | 9 | 4.0 | 0.0 | 0.00 | 0.00 | 0.13 | 100 | 1009.8 |
| 20260507071552 | 55 | 338 | 5.0 | 0.0 | 0.00 | 0.00 | 0.13 | 100 | 1009.7 |
| 20260507070056 | 56 | 341 | 4.0 | 0.0 | 0.00 | 0.00 | 0.13 | 100 | 1009.7 |
| 20260507064549 | 56 | 355 | 2.0 | 0.0 | 0.00 | 0.00 | 0.13 | 100 | 1009.8 |
| 20260507063038 | 57 | 346 | 4.0 | 0.0 | 0.00 | 0.00 | 0.13 | 100 | 1009.7 |
| 20260507061537 | 57 | 26 | 4.0 | 0.0 | 0.00 | 0.00 | 0.13 | 100 | 1009.5 |
| 20260507060029 | 58 | 344 | 3.0 | 0.0 | 0.00 | 0.00 | 0.13 | 100 | 1009.8 |
| 20260507054525 | 59 | 318 | 3.0 | 0.0 | 0.00 | 0.00 | 0.13 | 100 | 1009.9 |
| 20260507053021 | 60 | 323 | 4.0 | 0.0 | 0.00 | 0.00 | 0.12 | 100 | 1009.8 |
| 20260507051517 | 60 | 309 | 3.0 | 0.0 | 0.00 | 0.00 | 0.11 | 100 | 1009.9 |
| 20260507050021 | 61 | 311 | 4.0 | 0.0 | 0.00 | 0.00 | 0.04 | 100 | 1010.0 |
| 20260507044507 | 62 | 284 | 5.0 | 0.0 | 0.00 | 0.00 | 0.00 | 100 | 1009.9 |
| 20260507043003 | 62 | 309 | 5.0 | 0.0 | 0.00 | 0.00 | 0.00 | 100 | 1009.8 |
| 20260507041559 | 63 | 340 | 5.0 | 0.0 | 0.00 | 0.00 | 0.00 | 6 | 1009.8 |
| 20260507034556 | 63 | 355 | 4.0 | 0.0 | 0.00 | 0.00 | 0.11 | 12 | 1009.2 |
| 20260507033100 | 64 | 296 | 4.0 | 0.0 | 0.00 | 0.00 | 0.11 | 9 | 1009.3 |
| 20260507031556 | 64 | 355 | 4.0 | 0.0 | 0.00 | 0.00 | 0.11 | 100 | 1009.2 |
| 20260507030100 | 65 | 329 | 4.0 | 0.0 | 0.00 | 0.00 | 0.11 | 100 | 1009.1 |
| 20260507024548 | 66 | 13 | 5.0 | 0.0 | 0.00 | 0.00 | 0.11 | 100 | 1008.6 |
| 20260507023031 | 67 | 296 | 5.0 | 0.0 | 0.00 | 0.00 | 0.11 | 100 | 1008.7 |
| 20260507021526 | 67 | 322 | 4.0 | 0.0 | 0.00 | 0.00 | 0.11 | 100 | 1008.1 |
| 20260507020024 | 67 | 348 | 5.0 | 0.0 | 0.00 | 0.00 | 0.11 | 100 | 1008.2 |
| 20260507014521 | 67 | 265 | 2.0 | 0.0 | 0.00 | 0.00 | 0.11 | 100 | 1008.3 |
| 20260507013016 | 67 | 275 | 1.0 | 0.0 | 0.00 | 0.00 | 0.11 | 100 | 1008.7 |
| 20260507011524 | 68 | 338 | 1.0 | 0.0 | 0.00 | 0.00 | 0.11 | 100 | 1008.6 |
| 20260507010004 | 68 | 215 | 0.0 | 0.0 | 0.00 | 0.00 | 0.11 | 100 | 1008.3 |
| 20260507004600 | 68 | 211 | 0.0 | 0.0 | 0.00 | 0.00 | 0.11 | 100 | 1008.2 |
| 20260507003101 | 68 | 209 | 1.0 | 0.0 | 0.00 | 0.00 | 0.11 | 100 | 1007.9 |
| 20260507001552 | 68 | 205 | 1.0 | 0.0 | 0.00 | 0.00 | 0.11 | 100 | 1007.7 |
| 20260507000049 | 69 | 190 | 1.0 | 0.0 | 0.00 | 0.00 | 0.11 | 100 | 1007.8 |
| 20260506234552 | 69 | 107 | 0.0 | 0.0 | 0.00 | 0.00 | 0.11 | 100 | 1007.6 |
| 20260506233047 | 69 | 196 | 1.0 | 0.0 | 0.00 | 0.00 | 0.11 | 100 | 1007.6 |
| 20260506231535 | 69 | 200 | 1.0 | 0.0 | 0.00 | 0.00 | 0.11 | 100 | 1007.0 |
| 20260506230029 | 70 | 162 | 1.0 | 0.0 | 0.00 | 0.00 | 0.11 | 100 | 1007.1 |
| 20260506224526 | 70 | 198 | 1.0 | 0.0 | 0.00 | 0.00 | 0.11 | 100 | 1006.9 |
| 20260506223021 | 69 | 177 | 2.0 | 0.0 | 0.00 | 0.00 | 0.11 | 100 | 1007.0 |
| 20260506221516 | 69 | 200 | 4.0 | 0.0 | 0.00 | 0.00 | 0.11 | 100 | 1007.0 |
| 20260506220012 | 70 | 208 | 2.0 | 0.0 | 0.00 | 0.00 | 0.11 | 100 | 1007.1 |